www.pogodaiklimat.ru

Погода и климат >> Архив погоды >> Ирак >> Najaf


ПОГОДА в Najaf

  • Прогноз погоды в Najaf
  • Монитор погоды в Najaf
  • Климат города

АРХИВ ПОГОДЫ в Najaf

Время (UTC), дата Ветер
(напр.,м/с)
 
Видим.   Явления Облачность Т
(С)
Тd
(С)
f
(%)
Тe
(С)
Тes
(С)
Комфортность P
(гПа)
Po
(гПа)
Тmin
(С)
Tmax
(С)
R
(мм)
R24
(мм)
S
(см)
18 18.05 штиль 0 10 км ясно +32.0 +9.7 25 +31 +31 жарко 1009.9 1010.0 +37.8
21 18.05 штиль 0 10 км ясно +28.7 +9.3 30 +29 +29 жарко 1009.6 1010.0
00 19.05 штиль 0 10 км 1/0
[Ci fib]
+27.0 +10.5 36 +28 +28 жарко 1009.6 1010.0
03 19.05 штиль 0 10 км ясно +24.5 +10.9 42 +26 +27 жарко 1010.2 1010.0
06 19.05 штиль 0 10 км ясно +32.0 +8.0 23 +31 +47 жарко 1010.7 1011.0 +24.0
09 19.05 СВ 3 10 км ясно +37.8 +6.1 14 +35 +53 опасность
солнечного
удара
1010.0 1010.0
15 19.05 штиль 0 10 км 3/0
[Ci fib]
+37.4 +9.1 18 +36 +37 очень
жарко
1008.0 1008.0
18 19.05 штиль 0 10 км ясно +32.0 +12.8 31 +33 +33 жарко 1008.7 1009.0 +39.6
21 19.05 штиль 0 10 км ясно +29.8 +9.8 29 +30 +30 жарко 1008.9 1009.0
00 20.05 штиль 0 10 км ясно +26.5 +11.7 40 +28 +28 жарко 1008.9 1009.0
03 20.05 штиль 0 10 км 4/0
[Ci sp]
+25.8 +15.4 53 +29 +30 душно 1009.5 1010.0
06 20.05 штиль 0 10 км ясно +33.0 +10.6 25 +32 +49 жарко 1010.2 1010.0 +25.0
09 20.05 СЗ 3 10 км ясно +39.2 +8.7 16 +37 +55 опасность
солнечного
удара
1009.4 1009.0
12 20.05 С 4 10 км ясно +40.4 +8.7 15 +38 +47 очень
жарко
1008.9 1009.0
15 20.05 СВ 4 10 км ясно +38.0 +10.2 19 +37 +37 очень
жарко
1007.0 1007.0
18 20.05 штиль 0 10 км ясно +34.5 +12.4 26 +35 +35 очень
жарко
1007.4 1007.0 +41.0
21 20.05 штиль 0 10 км ясно +29.2 +12.8 36 +30 +30 жарко 1007.6 1008.0
00 21.05 штиль 0 10 км ясно +27.5 +13.3 42 +29 +29 жарко 1007.5 1008.0
03 21.05 штиль 0 10 км ясно +27.0 +16.5 53 +31 +32 душно 1008.5 1009.0
06 21.05 штиль 0 10 км ясно +34.0 +11.8 26 +34 +50 очень
жарко
1009.4 1009.0 +26.1
09 21.05 штиль 0 10 км 5/0
[Ci sp]
+41.5 +8.5 14 +39 +65 опасность
солнечного
удара
1008.8 1009.0
12 21.05 штиль 0 10 км 3/0
[Ac trans Ci sp]
+43.3 +10.1 14 +42 +57 опасность
перегрева
1007.3 1007.0
15 21.05 штиль 0 10 км 9/0
[Cs]
+41.7 +9.5 15 +40 +41 очень
жарко
1005.4 1005.0
18 21.05 ЮВ 3 10 км ясно +37.2 +8.7 18 +35 +35 очень
жарко
1005.5 1006.0 +43.6
21 21.05 штиль 0 10 км ясно +33.4 +10.3 24 +33 +33 жарко 1005.6 1006.0
00 22.05 штиль 0 10 км 6/6 750 м
[Cu med, cong]
+31.3 +13.4 34 +33 +33 жарко 1006.3 1006.0
03 22.05 штиль 0 10 км 9/5
[Cu med, cong Ci fib]
+31.3 +14.3 36 +33 +34 жарко 1008.5 1009.0
06 22.05 СЗ 3 10 км 3/1 840 м
[Cu hum Ci sp]
+35.2 +12.0 25 +35 +44 очень
жарко
1009.8 1010.0 +30.3
09 22.05 штиль 0 10 км 3/0
[Ci sp]
+40.2 +11.3 18 +39 +66 опасность
солнечного
удара
1007.2 1007.0
12 22.05 штиль 0 10 км 3/0
[Ci sp]
+41.4 +9.2 15 +40 +56 опасность
солнечного
удара
1008.1 1008.0
15 22.05 штиль 0 10 км ясно +40.0 +9.4 16 +38 +39 очень
жарко
1007.6 1008.0
18 22.05 штиль 0 10 км ясно +36.8 +8.2 17 +35 +35 очень
жарко
1007.0 1007.0 +41.8
21 22.05 штиль 0 10 км ясно +32.8 +10.8 26 +32 +32 жарко 1009.6 1010.0
00 23.05 штиль 0 10 км 3/0
[Ci sp]
+31.2 +11.3 29 +31 +31 жарко 1009.6 1010.0
03 23.05 штиль 0 10 км 1/0
[Ci sp]
+29.8 +12.3 34 +31 +32 жарко 1010.6 1011.0
06 23.05 штиль 0 8000 м пыль ясно +34.8 +13.1 27 +35 +52 опасность
солнечного
удара
1010.7 1011.0 +29.0
09 23.05 Ю 3 6000 м пыль 4/0
[Ci fib]
+38.7 +11.5 20 +38 +54 опасность
солнечного
удара
1010.3 1010.0
12 23.05 С 4 6000 м пыль 6/6 840 м
[Cu med, cong]
+40.4 +10.5 17 +39 +43 очень
жарко
1008.8 1009.0
15 23.05 ЮЗ 2 6000 м пыль 4/4 900 м
[Cu hum]
+39.4 +11.2 19 +39 +39 очень
жарко
1006.8 1007.0
18 23.05 В 2 8000 м пыль 4/4 900 м
[Cu hum]
+35.3 +12.2 25 +35 +35 очень
жарко
1006.1 1006.0 +40.8
21 23.05 ЮВ 3 8000 м пыль 3/3 900 м
[Cu hum]
+33.7 +11.3 26 +34 +34 очень
жарко
1004.9 1005.0
00 24.05 ЮВ 4 10 км 9/4
[Cu med, cong Cs]
+31.5 +10.8 28 +31 +31 жарко 1003.9 1004.0
03 24.05 Ю 3 10 км 9/3
[Cu hum Cs]
+30.5 +10.4 29 +30 +31 жарко 1003.4 1003.0
06 24.05 Ю 3 10 км 10/0
[Cs]
+33.0 +10.1 25 +32 +41 жарко 1003.5 1004.0 +29.5
09 24.05 Ю 3 4000 м пыль ясно +39.5 +8.8 16 +38 +56 опасность
солнечного
удара
1002.3 1002.0
12 24.05 Ю 3 8000 м пыль ясно +40.6 +14.3 21 +41 +52 опасность
перегрева
1002.1 1002.0
15 24.05 Ю 3 8000 м пыль ясно +39.5 +9.9 17 +38 +39 очень
жарко
1001.8 1002.0
18 24.05 Ю 3 6000 м пыль ясно +36.0 +13.1 25 +36 +36 очень
жарко
1002.0 1002.0 +41.1
21 24.05 ЮЗ 4 8000 м пыль ясно +33.0 +11.7 27 +33 +33 жарко 1002.8 1003.0
00 25.05 ЮЗ 4 8000 м пыль ясно +31.0 +10.7 29 +31 +31 жарко 1004.5 1005.0
03 25.05 ЮЗ 4 8000 м пыль ясно +28.0 +12.2 38 +29 +30 жарко 1004.8 1005.0
06 25.05 С 3 10 км ясно +33.6 +11.4 26 +33 +44 жарко 1004.4 1004.0 +27.5
09 25.05 С 3 10 км ясно +38.6 +9.9 18 +37 +55 опасность
солнечного
удара
1004.2 1004.0
12 25.05 С 5 10 км 1/0
[Ci sp]
+39.8 +10.5 17 +38 +45 очень
жарко
1003.7 1004.0

 

Местоположение метеостанции Najaf (Ирак): широта 31.98 долгота 44.32 высота над уровнем моря 32 м.

В архиве по умолчанию представлена погода в Najaf за последнюю неделю. Архивные данные за месяц целиком и за предыдущие месяцы, начиная с января 2011 года, Вы можете получить, выбрав интересующий диапазон дат из раскрывающегося списка и нажав кнопку "Ввод!".


*Определитесь, кто Вы:
робот инопланетянин человек

Внимание! Время в таблицах - всемирное. Для получения местного времени необходимо прибавить поправку, которая в Najaf равна 3 ч.

Смотрите также архив погоды в соседних городах и на ближайших метеорологических станциях:

Погода в Hella (Ирак) (54 км)
Погода в Diwaniya (Ирак) (62 км)
Погода в Karbalaa (Ирак) (77 км)
Погода в Samawah (Ирак) (118 км)
Погода в Azizyah (Ирак) (126 км)
Погода в Baghdad (Ирак) (139 км)
Погода в Ubaydah Bin Al Jarrah (Ирак) (146 км)
Погода в Kut-Al-Hai (Ирак) (164 км)
Погода в Rifai (Ирак) (171 км)
Погода в Ayn Al-Tamar (Ирак) (179 км)

Пояснения к столбцам:

Ветер - указаны скорость ветра в м/с - средняя за 10 мин, порывы в срок и между сроками (в фигурных скобках) и направление, откуда дует ветер: С - северный, СВ - северо-восточный, В - восточный, ЮВ - юго-восточный, Ю - южный, ЮЗ - юго-западный, З - западный, СЗ - северо-западный.
Видимость - горизонтальная дальность видимости в метрах или километрах. При видимости от 1 до 10 км при отсутствии осадков обычно наблюдается дымка, при ухудшении видимости до 1 км и менее - туман. В сухую погоду видимость может ухудшаться дымом, пылью или мглою.
Явления - указаны атмосферные явления, наблюдавшиеся в срок или в последний час перед сроком; фигурными скобками обозначены явления, наблюдавшиеся между сроками (за 1-3 часа до срока); квадратными скобками обозначены град или гололедные отложения с указанием их диаметра в мм.
Облачность - указаны через наклонную черту общая и нижняя облачность в баллах и высота нижней границы облаков в метрах; квадратными скобками обозначены формы облаков: Ci - перистые, Cs - перисто-слоистые, Cc - перисто-кучевые, Ac - высококучевые, As - высокослоистые, Sc - слоисто-кучевые, Ns - слоисто-дождевые, Cu - кучевые, Cb - кучево-дождевые. Подробнее классификацию облаков см. в Атласе облаков (PDF).
T - Температура воздуха - температура, измеренная на высоте 2 м над землей.
Td - Температура точки росы - температура, при понижении до которой содержащийся в воздухе водяной пар достигнет насыщения.
f - Относительная влажность воздуха - влажноcть воздуха, измеренная на высоте 2 м над землей.
Te - Эффективная температура - температура, которую ощущает одетый по сезону человек в тени. Характеристика душности погоды. При расчете учитывается влияние влажности воздуха и скорости ветра на теплоощущения человека.
Tes - Эффективная температура на солнце - температура, которую ощущает человек, с поправкой на солнечный нагрев. Характеристика знойности погоды. Зависит от высоты солнца над горизонтом, облачности и скорости ветра. Ночью, в пасмурную погоду, а также при ветре 12 м/с и более поправка равна нулю.
P - Атмосферное давление - приведенное к уровню моря атмосферное давление.
Po - Атмосферное давление - измеренное на уровне метеостанции атмосферное давление.
Tmin - Минимальная температура - минимум температуры воздуха на высоте 2 м над землей.
Tmax - Максимальная температура - максимум температуры воздуха на высоте 2 м над землей.
R - Количество осадков - Количество выпавших осадков за период времени, мм. При наведении курсора мыши на число - период времени, за который выпало указанное количество осадков.
R24 - Количество осадков - Количество выпавших осадков за 24 часа, мм.
S - Снежный покров - Высота снежного покрова, см. При наведении курсора мыши на число - состояние снежного покрова и степень покрытия местности в баллах.